Location: La Sioule Rivi�re
(46.3664°N, 3.3197°E)
Time: 12:42:21
(UTC+00:00)

Cosmos 44 Rocket - Pass Details

Date: 29 October 2020
Orbit: 642 x 748 km, 65.1° (Epoch: 23 November)

Event Time Altitude Azimuth Distance (km) Brightness Sun altitude
Rises 18:11:42 0° 197° (SSW) 2,977 6.8 -17.0°
Reaches altitude 10° 18:14:02 10° 191° (S) 2,083 5.9 -17.4°
Maximum altitude 18:18:33 46° 118° (ESE) 911 3.5 -18.2°
Enters shadow 18:19:57 36° 75° (ENE) 1,087 3.8 -18.4°
